Volver al catálogo

O/OREOS

USA 219

ActivoRadioaficionadoVLEO
NORAD 37224·PAYLOAD·🇺🇸 United States

Lanzado Nov 20, 2010 desde Kodiak Launch Complex

Loading…

Próximos Pases (próximas 24 horas)

TLE

ActualizadoSource: Space-Track

Época: Sep 14, 2026, 01:19 UTC

1 37224U 10062C   26257.05555476  .00001693  00000-0  16417-3 0  9997
2 37224  71.9679 238.9835 0016579 257.8903 102.0410 14.94034276129919

Sigue O/OREOS en tiempo real con AllMySat

Download on the App Store